Regional Weather Roundup
Issued by NWS Newport/Morehead, NC

Current Version | Previous Version | Graphics & Text | Print | Product List | Glossary On
Versions: 1 2 3 4 5 6 7 8 9 10 11 12 13 14 15 16 17 18 19 20 21 22 23 24 25 26 27 28 29 30 31 32 33 34 35 36 37 38 39 40 41 42 43 44 45 46 47 48 49 50
000 ASUS42 KMHX 201510 RWRMHX WEATHER ROUNDUP FOR EASTERN NORTH CAROLINA NATIONAL WEATHER SERVICE NEWPORT/MOREHEAD CITY NC 1100 AM EDT WED AUG 20 2014 NOTE: "FAIR" INDICATES FEW OR NO CLOUDS BELOW 12,000 FEET WITH NO SIGNIFICANT WEATHER AND/OR OBSTRUCTIONS TO VISIBILITY NCZ015>017-031-032-045>047-102-103-201600- NORTH COAST CITY SKY/WX TMP DP RH WIND PRES REMARKS EDENTON MOSUNNY 81 72 74 E7 29.98S ELIZABETH CITY MOSUNNY 80 72 76 NE6 29.98S KITTY HAWK MOSUNNY 80 72 75 NE9 29.97R MANTEO CLOUDY 81 73 78 NE9 29.98R $$ NCZ045>047-081-094-103-104-201600- CENTRAL COAST CITY SKY/WX TMP DP RH WIND PRES REMARKS FRISCO MOSUNNY 82 73 74 VRB3 29.96R SWANQUARTER N/A 82 N/A N/A NE3G9 29.94S $$ NCZ095-097-098-100-101-201600- SOUTHERN COAST CITY SKY/WX TMP DP RH WIND PRES REMARKS BEAUFORT MOSUNNY 83 74 74 N9 29.97S CEDAR ISLAND N/A 81 N/A N/A NW8 30.00S JACKSONVILLE MOSUNNY 81 73 76 NW5 29.99R NEWPORT NOT AVBL PINEY ISLAND MOSUNNY 83 75 77 N7 29.97R WILMINGTON SUNNY 86 75 69 CALM 29.99R $$ NCZ011>013-027>030-043-044-078>080-089-090>093-098-201600- COASTAL PLAIN CITY SKY/WX TMP DP RH WIND PRES REMARKS AHOSKIE PTSUNNY 78 71 79 CALM 30.00R CLINTON SUNNY 84 76 79 CALM 29.99S ELIZABETHTOWN SUNNY 84 75 73 CALM 29.99R GOLDSBORO MOSUNNY 80 76 85 N6 29.98R GREENVILLE CLOUDY 79 73 83 N6 30.01R HAVELOCK MOSUNNY 83 73 72 NE7 29.99R KENANSVILLE MOSUNNY 82 73 75 N3 30.00S KINSTON PTSUNNY 79 72 78 E6 30.00R NEW BERN MOSUNNY 82 72 71 N3 29.99S RICHLANDS MOSUNNY 81 72 74 NW3 29.99S ROANOKE RAPIDS NOT AVBL ROCKY MOUNT CLOUDY 79 72 79 E3 30.01R WASHINGTON MOSUNNY 78 72 81 E6 29.99S WHITEVILLE SUNNY 85 73 67 S3 29.98S $$ AMZ130-135-150-152-154-156-158-170-250-252-270-ANZ085-086-088-633-658-670-201600- MARINE OBSERVATIONS STATION/POSITION TIME TEMP WIND PRES WAVE SWELL AIR SEA DIR/SP/G HT/PER HT/PER (UTC) (F) (DEG/KT/KT) (MB) (FT/S) (FT/S) CHESAPEAKE LIGHT 1400 75 40/ 10/ 11 1015.6 BUOY 44014 1500 78 78 30/ 12/ 14 1014.2 3/ 5 2/ 8 DUCK 1500 77 78 30/ 10/ 11 1014.4 2E DUCK 1500 N/A 3/ 4 OREGON INLET 1500 79 81 10/ 10/ 14 1014.8 BUOY 44095 1500 80 N/A 3/ 6 20E OREGON INLET NOT AVBL HATTERAS CG 1500 80 81 350/ 8/ 9 1015.1 DIAMOND BUOY 1500 78 310/ 6/ 8 1014.3 2/ 8 2/ 8 CAPE LOOKOUT 1400 78 340/ 10/ 11 1014.7 BEAUFORT LAB 1500 80 82 360/ 6/ 9 1014.6 30 SE NEW RIVER 1500 79 82 10/ 8/ 10 1014.8 4/ 7 3/ 7 5 SE WRIGHTSVILL 1400 76 82 20/ 6/ 8 N/A BUOY 41002 1414 82 81 240/ 17/ 19 1017.1 6/ 6 2/12 BUOY 41004 1500 81 83 270/ 12/ 14 1015.7 4/ 6 3/ 6 $$

USA.gov is the U.S. government's official web portal to all federal, state and local government web resources and services.